Location: Écuvilly
(49.6505°N, 2.9206°E)
Time: 05:43:21
(UTC+00:00)

Cosmos 1943 Rocket - Pass Details

Date: 17 November 2025
Orbit: 812 x 841 km, 71.0° (Epoch: 16 December)

Event Time Altitude Azimuth Distance (km) Brightness Sun altitude
Rises 17:41:27 0° 203° (SSW) 3,372 5.8 -15.8°
Reaches altitude 10° 17:43:53 10° 203° (SSW) 2,438 5.0 -16.2°
Maximum altitude 17:49:29 82° 116° (ESE) 844 2.1 -17.0°
Enters shadow 17:54:10 15° 31° (NNE) 2,093 3.9 -17.8°
